Date String (YYYY-MM-DD hh:mm:ss) UTC,Instrument flags,absolute air pressure of the measurement (hPa),sample flow rate (lpm),inlet stack bypass flow (lpm),air temperature of the measurement (°C),ambient temperature measured by the external sensor (°C),aerosol sample conditioner tube jacket temperature (°C),OPC LED temperature (°C),internal box temperature (°C),relative humidity of the measurement (%),span deviation,mass concentration of particles derived from Lorenz-Mie calculation of OPC scattering (μg/m³),mass concentration of particles derived from Lorenz-Mie calculation of OPC scattering (μg/m³),mass concentration of particles derived from Lorenz-Mie calculation of OPC scattering (μg/m³)
DateTimeUTC,F1_M11,P_M11,Q1_M11,Q2_M11,T1_M11,T2_M11,T3_M11,T4_M11,T5_M11,U1_M11,ZSPAN_M11,X2_M11,X0_M11,X1_M11
2023-08-17 15:00:00,SystemResetWarning,0836.6,5.00,000.00,028.0,025.4,000.0,036.5,029.6,32.6,0000.9,0015.78,0035.02,0013.76
2023-08-17 15:01:00,SystemResetWarning,0836.7,5.00,000.00,028.0,025.8,000.0,036.5,029.7,32.5,0000.7,0015.80,0034.81,0013.78
2023-08-17 15:02:00,SystemResetWarning,0836.6,4.99,000.00,028.1,026.1,000.0,036.5,029.7,33.1,0000.7,0015.78,0033.31,0013.81
2023-08-17 15:03:00,SystemResetWarning,0836.6,5.00,000.00,028.1,026.3,000.0,036.6,029.8,32.7,0000.9,0015.81,0033.19,0013.84
2023-08-17 15:04:00,SystemResetWarning,0836.6,5.00,000.00,028.1,026.6,000.0,036.6,029.9,32.6,0001.0,0015.86,0035.04,0013.85
2023-08-17 15:05:00,SystemResetWarning,0836.6,5.00,000.00,028.2,026.7,000.0,036.6,030.0,32.4,0001.4,0015.94,0035.25,0013.86
2023-08-17 15:06:00,SystemResetWarning,0836.6,4.98,000.00,028.2,025.7,000.0,036.5,029.8,32.7,0001.3,0015.94,0034.48,0013.85
2023-08-17 15:07:00,SystemResetWarning,0836.5,5.01,000.00,028.1,024.4,000.0,036.4,029.5,32.6,0001.0,0015.92,0033.91,0013.87
2023-08-17 15:08:00,SystemResetWarning,0836.5,5.01,000.00,028.0,024.3,000.0,036.3,029.4,32.6,0000.8,0015.94,0033.68,0013.86
2023-08-17 15:09:00,SystemResetWarning,0836.5,5.00,000.00,028.0,024.6,000.0,036.3,029.4,32.8,0000.7,0015.85,0033.57,0013.83
2023-08-17 15:10:00,SystemResetWarning,0836.5,5.00,000.00,027.9,025.0,000.0,036.4,029.5,33.5,0000.8,0015.79,0032.75,0013.81
2023-08-17 15:11:00,SystemResetWarning,0836.5,5.00,000.00,027.9,025.4,000.0,036.4,029.6,33.5,0001.2,0015.69,0030.98,0013.81
2023-08-17 15:12:00,SystemResetWarning,0836.5,5.00,000.00,028.0,025.8,000.0,036.4,029.7,32.8,0001.6,0015.65,0030.14,0013.82
2023-08-17 15:13:00,SystemResetWarning,0836.5,5.01,000.00,028.0,026.1,000.0,036.5,029.7,32.5,0002.1,0015.71,0031.16,0013.81
2023-08-17 15:14:00,SystemResetWarning,0836.5,5.00,000.00,028.0,026.3,000.0,036.5,029.8,32.4,0002.5,0015.67,0029.55,0013.83
2023-08-17 15:15:00,SystemResetWarning,0836.5,5.00,000.00,028.1,026.6,000.0,036.5,029.9,32.7,0002.5,0015.69,0028.21,0013.86
2023-08-17 15:16:00,SystemResetWarning,0836.5,5.00,000.00,028.1,026.8,000.0,036.5,029.9,32.7,0002.2,0015.64,0026.81,0013.90
2023-08-17 15:17:00,SystemResetWarning,0836.5,4.98,000.00,028.2,026.0,000.0,036.4,029.8,32.5,0002.1,0015.65,0027.07,0013.91
2023-08-17 15:18:00,SystemResetWarning,0836.4,5.01,000.00,028.1,024.6,000.0,036.3,029.6,32.4,0002.3,0015.71,0026.83,0013.94
2023-08-17 15:19:00,SystemResetWarning,0836.4,5.02,000.00,028.0,024.3,000.0,036.3,029.4,32.0,0002.4,0015.76,0026.51,0013.96
2023-08-17 15:20:00,SystemResetWarning,0836.4,5.00,000.00,028.0,024.6,000.0,036.3,029.4,32.2,0002.4,0015.75,0026.64,0013.99
2023-08-17 15:21:00,SystemResetWarning,0836.4,5.00,000.00,027.9,024.9,000.0,036.3,029.4,32.4,0002.3,0015.80,0026.61,0014.00
2023-08-17 15:22:00,SystemResetWarning,0836.4,5.00,000.00,027.9,025.3,000.0,036.4,029.5,32.4,0002.0,0015.87,0026.74,0014.04
2023-08-17 15:23:00,SystemResetWarning,0836.4,4.99,000.00,027.9,025.7,000.0,036.4,029.6,32.3,0001.7,0015.86,0026.74,0014.03
2023-08-17 15:24:00,SystemResetWarning,0836.4,5.00,000.00,028.0,026.0,000.0,036.4,029.7,32.3,0001.5,0015.81,0025.50,0014.01
2023-08-17 15:25:00,SystemResetWarning,0836.4,5.00,000.00,028.0,026.3,000.0,036.4,029.8,32.9,0001.3,0015.79,0025.92,0013.99
2023-08-17 15:26:00,SystemResetWarning,0836.4,5.00,000.00,028.1,026.5,000.0,036.4,029.8,32.5,0001.2,0015.76,0027.07,0013.98
2023-08-17 15:27:00,SystemResetWarning,0836.4,5.00,000.00,028.1,026.6,000.0,036.4,029.9,32.5,0001.3,0015.74,0027.14,0013.94
2023-08-17 15:28:00,SystemResetWarning,0836.4,4.99,000.00,028.1,025.4,000.0,036.4,029.7,32.5,0001.1,0015.67,0026.62,0013.91
2023-08-17 15:29:00,SystemResetWarning,0836.3,5.00,000.00,028.0,024.3,000.0,036.3,029.5,32.8,0001.0,0015.63,0026.60,0013.88
2023-08-17 15:30:00,SystemResetWarning,0836.3,5.00,000.00,028.0,024.3,000.0,036.2,029.4,32.8,0001.3,0015.54,0026.54,0013.87
2023-08-17 15:31:00,SystemResetWarning,0836.4,5.01,000.00,027.9,024.6,000.0,036.2,029.3,33.0,0001.4,0015.49,0027.56,0013.85
2023-08-17 15:32:00,SystemResetWarning,0836.3,5.01,000.00,027.9,025.0,000.0,036.3,029.4,33.3,0001.6,0015.44,0028.49,0013.84
2023-08-17 15:33:00,SystemResetWarning,0836.4,5.00,000.00,027.9,025.4,000.0,036.3,029.5,33.3,0001.4,0015.41,0028.04,0013.84
2023-08-17 15:34:00,SystemResetWarning,0836.4,5.00,000.00,027.9,025.8,000.0,036.3,029.6,33.1,0001.3,0015.38,0027.71,0013.81
2023-08-17 15:35:00,SystemResetWarning,0836.3,5.01,000.00,027.9,026.1,000.0,036.4,029.7,33.0,0001.4,0015.46,0028.38,0013.83
2023-08-17 15:36:00,SystemResetWarning,0836.3,5.00,000.00,028.0,026.3,000.0,036.4,029.8,33.1,0001.3,0015.50,0029.24,0013.84
2023-08-17 15:37:00,SystemResetWarning,0836.3,5.00,000.00,028.0,026.6,000.0,036.4,029.8,33.3,0001.2,0015.48,0029.58,0013.84
2023-08-17 15:38:00,SystemResetWarning,0836.3,4.99,000.00,028.1,026.3,000.0,036.4,029.8,33.2,0001.1,0015.50,0029.54,0013.83
2023-08-17 15:39:00,SystemResetWarning,0836.3,4.99,000.00,028.0,024.9,000.0,036.3,029.5,33.1,0001.3,0015.53,0029.72,0013.87
2023-08-17 15:40:00,SystemResetWarning,0836.3,5.01,000.00,027.9,024.2,000.0,036.2,029.3,33.1,0001.4,0015.51,0030.10,0013.87
2023-08-17 15:41:00,SystemResetWarning,0836.3,5.00,000.00,027.9,024.4,000.0,036.2,029.3,33.3,0001.2,0015.56,0030.27,0013.86
2023-08-17 15:42:00,SystemResetWarning,0836.2,5.00,000.00,027.8,024.8,000.0,036.2,029.3,33.3,0000.9,0015.61,0029.62,0013.86
2023-08-17 15:43:00,SystemResetWarning,0836.3,5.01,000.00,027.8,025.2,000.0,036.2,029.4,33.7,0000.8,0015.70,0029.22,0013.86
2023-08-17 15:44:00,SystemResetWarning,0836.2,5.01,000.00,027.9,025.5,000.0,036.3,029.5,33.2,0000.8,0015.70,0028.92,0013.87
2023-08-17 15:45:00,SystemResetWarning,0836.2,4.99,000.00,027.9,025.9,000.0,036.3,029.6,33.2,0000.8,0015.67,0029.07,0013.88
2023-08-17 15:46:00,SystemResetWarning,0836.2,5.00,000.00,027.9,026.2,000.0,036.3,029.7,33.1,0000.7,0015.57,0028.93,0013.88
2023-08-17 15:47:00,SystemResetWarning,0836.3,5.00,000.00,028.0,026.4,000.0,036.3,029.8,33.2,0000.9,0015.54,0028.86,0013.90
2023-08-17 15:48:00,SystemResetWarning,0836.3,4.99,000.00,028.0,025.7,000.0,036.3,029.6,33.4,0000.9,0015.54,0027.88,0013.90
2023-08-17 15:49:00,SystemResetWarning,0836.2,5.00,000.00,027.9,024.4,000.0,036.2,029.3,33.3,0000.8,0015.54,0027.18,0013.91
2023-08-17 15:50:00,SystemResetWarning,0836.2,5.00,000.00,027.8,024.2,000.0,036.1,029.2,33.7,0000.6,0015.53,0027.06,0013.90
2023-08-17 15:51:00,SystemResetWarning,0836.2,5.01,000.00,027.8,024.5,000.0,036.1,029.1,33.9,0000.5,0015.51,0026.41,0013.91
2023-08-17 15:52:00,SystemResetWarning,0836.2,5.01,000.00,027.7,024.8,000.0,036.2,029.2,33.9,0000.4,0015.48,0027.13,0013.91
2023-08-17 15:53:00,SystemResetWarning,0836.3,5.00,000.00,027.8,025.3,000.0,036.2,029.4,33.4,0000.7,0015.49,0027.36,0013.93
2023-08-17 15:54:00,SystemResetWarning,0836.3,5.00,000.00,027.8,025.6,000.0,036.2,029.5,33.4,0000.5,0015.48,0027.09,0013.94
2023-08-17 15:55:00,SystemResetWarning,0836.3,5.00,000.00,027.8,026.0,000.0,036.2,029.6,33.5,0001.0,0015.45,0026.64,0013.94
2023-08-17 15:56:00,SystemResetWarning,0836.2,4.99,000.00,027.9,026.2,000.0,036.3,029.7,33.6,0001.2,0015.47,0026.73,0013.93
2023-08-17 15:57:00,SystemResetWarning,0836.3,4.99,000.00,027.9,026.5,000.0,036.3,029.7,33.3,0001.4,0015.56,0026.31,0013.94
2023-08-17 15:58:00,SystemResetWarning,0836.2,5.00,000.00,027.9,025.9,000.0,036.2,029.6,33.2,0001.3,0015.64,0026.39,0013.92
2023-08-17 15:59:00,SystemResetWarning,0836.2,5.00,000.00,027.9,024.6,000.0,036.1,029.3,33.8,0001.3,0015.66,0026.31,0013.90
